,,PA_Meas_PMT16A,,PR_Meas_QMR101_102,,RH_Meas_QMH101,,SR_Meas_QMS101,,TA_Meas_QMH101,,GenWind,,GenWind,
time,status,PA,status,PR,status,RH,status,SR,status,TA,status,DirAvg,status,SpdAvg,
2016-01-27, 08:04:04,VALID,918.931,VALID,0,VALID,97.3663,VALID,111.202,VALID,21.8681,VALID,126,VALID,1.74375,
2016-01-27, 08:05:04,VALID,918.929,VALID,0,VALID,98.708,VALID,129.252,VALID,21.8876,VALID,143,VALID,0.888672,
2016-01-27, 08:06:04,VALID,918.918,VALID,0,VALID,99.234,VALID,140.855,VALID,21.9461,VALID,111,VALID,0.194531,
2016-01-27, 08:07:04,VALID,918.973,VALID,0,VALID,98.7461,VALID,137.525,VALID,21.9851,VALID,121,VALID,0.510938,
2016-01-27, 08:08:04,VALID,918.973,VALID,0,VALID,98.8986,VALID,124.095,VALID,22.0242,VALID,121,VALID,0.0363281,
2016-01-27, 08:09:04,VALID,919.005,VALID,0,VALID,99.2721,VALID,119.582,VALID,22.0827,VALID,92,VALID,0,
2016-01-27, 08:10:04,VALID,918.995,VALID,0,VALID,99.0206,VALID,133.764,VALID,22.1005,VALID,111,VALID,0.205469,
2016-01-27, 08:11:04,VALID,919.034,VALID,0,VALID,98.3497,VALID,135.913,VALID,22.1217,VALID,139,VALID,0.660547,
2016-01-27, 08:12:04,VALID,919.039,VALID,0,VALID,97.2443,VALID,128.929,VALID,22.1022,VALID,132,VALID,1.08789,
2016-01-27, 08:13:04,VALID,919.029,VALID,0,VALID,96.5582,VALID,116.896,VALID,22.0827,VALID,114,VALID,1.29062,
2016-01-27, 08:14:04,VALID,919.057,VALID,0,VALID,97.2824,VALID,105.185,VALID,22.0615,VALID,139,VALID,1.03633,
2016-01-27, 08:15:04,VALID,919.055,VALID,0,VALID,96.4972,VALID,104.97,VALID,22.0437,VALID,153,VALID,1.06094,
2016-01-27, 08:16:04,VALID,919.047,VALID,0,VALID,97.8847,VALID,103.358,VALID,22.0225,VALID,165,VALID,0.00078125,
2016-01-27, 08:17:04,VALID,919.024,VALID,0,VALID,98.6622,VALID,98.9533,VALID,22.0225,VALID,144,VALID,0.297656,
2016-01-27, 08:18:04,VALID,919.009,VALID,0,VALID,99.4551,VALID,94.1184,VALID,22.0225,VALID,169,VALID,0.0121094,
2016-01-27, 08:25:04,VALID,919.117,VALID,0,VALID,99.2111,VALID,111.954,VALID,22.0242,VALID,128,VALID,1.7543,
2016-01-27, 08:26:04,VALID,919.097,VALID,0,VALID,98.8833,VALID,112.706,VALID,22.0242,VALID,115,VALID,0.405859,
2016-01-27, 08:27:04,VALID,919.082,VALID,0,VALID,99.6076,VALID,112.061,VALID,22.0208,VALID,126,VALID,0.455859,
2016-01-27, 08:28:04,VALID,919.115,VALID,0,VALID,99.051,VALID,111.631,VALID,21.9818,VALID,108,VALID,0.880078,
2016-01-27, 08:29:04,VALID,919.096,VALID,0,VALID,100.042,VALID,119.045,VALID,22.0013,VALID,65,VALID,0.466797,
2016-01-27, 08:30:04,VALID,919.112,VALID,0,VALID,100.446,VALID,124.202,VALID,22.0615,VALID,55,VALID,0,
2016-01-27, 08:31:04,VALID,919.12,VALID,0,VALID,100.034,VALID,126.995,VALID,22.0598,VALID,130,VALID,0.00390625,
2016-01-27, 08:32:04,VALID,919.143,VALID,0,VALID,99.6914,VALID,124.739,VALID,22.081,VALID,139,VALID,1.5375,
2016-01-27, 08:33:04,VALID,919.14,VALID,0,VALID,99.3026,VALID,121.946,VALID,22.042,VALID,100,VALID,0.65625,
2016-01-27, 08:34:04,VALID,919.144,VALID,0,VALID,99.0968,VALID,123.665,VALID,22.0208,VALID,141,VALID,1.59258,
2016-01-27, 08:35:04,VALID,919.154,VALID,0,VALID,98.6318,VALID,126.566,VALID,22.0013,VALID,152,VALID,0.979297,
2016-01-27, 08:36:04,VALID,919.135,VALID,0,VALID,99.1197,VALID,129.896,VALID,22.0013,VALID,166,VALID,0.522656,
2016-01-27, 08:37:04,VALID,919.145,VALID,0,VALID,99.4551,VALID,132.367,VALID,22.0013,VALID,124,VALID,1.35742,
2016-01-27, 08:38:04,VALID,919.193,VALID,0,VALID,99.4246,VALID,136.02,VALID,21.9623,VALID,128,VALID,1.51914,
2016-01-27, 08:39:04,VALID,919.188,VALID,0,VALID,99.6533,VALID,136.45,VALID,22.003,VALID,156,VALID,0.9,
2016-01-27, 08:40:04,VALID,919.196,VALID,0,VALID,100.164,VALID,136.88,VALID,22.042,VALID,98,VALID,0.00664063,
2016-01-27, 08:41:04,VALID,919.255,VALID,0,VALID,100.256,VALID,138.277,VALID,22.1413,VALID,128,VALID,0.487109,
2016-01-27, 08:42:04,VALID,919.265,VALID,0,VALID,99.8058,VALID,133.12,VALID,22.1396,VALID,109,VALID,0.442187,
2016-01-27, 08:43:04,VALID,919.273,VALID,0,VALID,99.3941,VALID,128.5,VALID,22.1396,VALID,144,VALID,0.0128906,
2016-01-27, 08:44:04,VALID,919.314,VALID,0,VALID,98.9977,VALID,126.888,VALID,22.1786,VALID,138,VALID,0.167578,
2016-01-27, 08:45:04,VALID,919.304,VALID,0,VALID,99.6685,VALID,129.789,VALID,22.2176,VALID,59,VALID,0.119531,
2016-01-27, 08:46:04,VALID,919.308,VALID,0,VALID,99.8134,VALID,141.715,VALID,22.2567,VALID,87,VALID,0.404687,
2016-01-27, 08:47:04,VALID,919.316,VALID,0,VALID,99.6685,VALID,159.013,VALID,22.2762,VALID,132,VALID,0.228125,
2016-01-27, 08:48:04,VALID,919.308,VALID,0,VALID,99.0206,VALID,167.286,VALID,22.1964,VALID,107,VALID,1.07461,
2016-01-27, 08:49:04,VALID,919.304,VALID,0,VALID,98.6013,VALID,162.988,VALID,22.1981,VALID,110,VALID,0.855469,
2016-01-27, 08:50:04,VALID,919.312,VALID,0,VALID,95.4299,VALID,157.938,VALID,22.1786,VALID,138,VALID,1.68008,
2016-01-27, 08:51:04,VALID,919.288,VALID,0,VALID,96.1923,VALID,165.997,VALID,22.1786,VALID,126,VALID,1.61406,
2016-01-27, 08:52:04,VALID,919.306,VALID,0,VALID,98.4412,VALID,176.311,VALID,22.2176,VALID,104,VALID,0.907812,
2016-01-27, 08:53:04,VALID,919.302,VALID,0,VALID,98.4488,VALID,188.452,VALID,22.2371,VALID,111,VALID,0.789844,
2016-01-27, 08:54:04,VALID,919.268,VALID,0,VALID,94.4617,VALID,203.279,VALID,22.2159,VALID,131,VALID,1.51133,
2016-01-27, 08:55:04,VALID,919.291,VALID,0,VALID,93.9738,VALID,203.708,VALID,22.2371,VALID,128,VALID,1.21289,
2016-01-27, 08:56:04,VALID,919.258,VALID,0,VALID,95.4604,VALID,193.716,VALID,22.3169,VALID,41,VALID,1.62422,
2016-01-27, 08:57:04,VALID,919.332,VALID,0,VALID,97.1757,VALID,189.526,VALID,22.3737,VALID,129,VALID,0.282031,
2016-01-27, 08:58:04,VALID,919.339,VALID,0,VALID,92.6245,VALID,178.782,VALID,22.473,VALID,119,VALID,0.604297,
2016-01-27, 08:59:04,VALID,919.327,VALID,0,VALID,92.4873,VALID,178.03,VALID,22.4713,VALID,129,VALID,1.21719,
2016-01-27, 09:00:04,VALID,919.334,VALID,0,VALID,88.4164,VALID,190.171,VALID,22.4908,VALID,131,VALID,1.65391,
2016-01-27, 09:01:04,VALID,919.336,VALID,0,VALID,91.8164,VALID,197.799,VALID,22.5299,VALID,66,VALID,0.513672,
2016-01-27, 09:02:04,VALID,919.314,VALID,0,VALID,93.4021,VALID,195.113,VALID,22.5689,VALID,76,VALID,1.07148,
2016-01-27, 09:03:04,VALID,919.304,VALID,0,VALID,87.5549,VALID,199.411,VALID,22.5494,VALID,128,VALID,1.99961,
2016-01-27, 09:04:04,VALID,919.312,VALID,0,VALID,88.3097,VALID,196.51,VALID,22.5689,VALID,109,VALID,0.750781,
2016-01-27, 09:05:04,VALID,919.26,VALID,0,VALID,88.0886,VALID,206.502,VALID,22.5672,VALID,105,VALID,1.6625,
2016-01-27, 09:06:04,VALID,919.304,VALID,0,VALID,94.5227,VALID,230.032,VALID,22.6452,VALID,62,VALID,0.133594,
2016-01-27, 09:07:04,VALID,919.301,VALID,0,VALID,89.2626,VALID,258.826,VALID,22.7055,VALID,114,VALID,1.15117,
2016-01-27, 09:08:04,VALID,919.309,VALID,0,VALID,88.6222,VALID,255.602,VALID,22.7428,VALID,87,VALID,1.11992,
2016-01-27, 09:09:04,VALID,919.305,VALID,0,VALID,85.8854,VALID,248.189,VALID,22.7623,VALID,97,VALID,0.828125,
2016-01-27, 09:10:04,VALID,919.293,VALID,0,VALID,86.3504,VALID,262.909,VALID,22.8226,VALID,93,VALID,1.23477,
2016-01-27, 09:11:04,VALID,919.351,VALID,0,VALID,87.1661,VALID,267.958,VALID,22.9007,VALID,79,VALID,0.767187,
2016-01-27, 09:12:04,VALID,919.328,VALID,0,VALID,86.9298,VALID,251.52,VALID,22.9185,VALID,91,VALID,0.280469,
2016-01-27, 09:13:04,VALID,919.361,VALID,0,VALID,88.1419,VALID,290.628,VALID,22.9965,VALID,72,VALID,0.731641,
2016-01-27, 09:14:04,VALID,919.387,VALID,0,VALID,85.7787,VALID,337.043,VALID,23.0746,VALID,65,VALID,1.07031,
2016-01-27, 09:15:04,VALID,919.39,VALID,0,VALID,84.1168,VALID,283.752,VALID,23.0941,VALID,60,VALID,2.55781,
2016-01-27, 09:16:04,VALID,919.432,VALID,0,VALID,85.2145,VALID,281.818,VALID,23.0551,VALID,90,VALID,1.78828,
2016-01-27, 09:17:04,VALID,919.48,VALID,0,VALID,84.4827,VALID,274.297,VALID,23.016,VALID,93,VALID,0.854297,
2016-01-27, 09:18:04,VALID,919.52,VALID,0,VALID,83.8118,VALID,264.198,VALID,22.9965,VALID,119,VALID,1.54375,
2016-01-27, 09:19:04,VALID,919.588,VALID,0,VALID,85.3136,VALID,357.672,VALID,22.9575,VALID,75,VALID,1.33789,
2016-01-27, 09:20:04,VALID,919.576,VALID,0,VALID,85.9388,VALID,285.364,VALID,22.9965,VALID,125,VALID,0.623438,
2016-01-27, 09:21:04,VALID,919.573,VALID,0,VALID,84.3302,VALID,277.628,VALID,23.0568,VALID,95,VALID,1.2457,
2016-01-27, 09:22:04,VALID,919.615,VALID,0,VALID,84.4293,VALID,282.893,VALID,23.0373,VALID,96,VALID,0.644922,
2016-01-27, 09:23:04,VALID,919.623,VALID,0,VALID,85.3899,VALID,302.125,VALID,23.0178,VALID,80,VALID,1.77422,
2016-01-27, 09:24:04,VALID,919.588,VALID,0,VALID,84.2997,VALID,706.426,VALID,23.0178,VALID,127,VALID,1.94336,
2016-01-27, 09:25:04,VALID,919.597,VALID,0,VALID,83.9948,VALID,806.023,VALID,23.1917,VALID,73,VALID,1.89297,
2016-01-27, 09:26:04,VALID,919.595,VALID,0,VALID,83.9719,VALID,820.421,VALID,23.4082,VALID,62,VALID,0.753906,
2016-01-27, 09:27:04,VALID,919.567,VALID,0,VALID,85.3136,VALID,782.386,VALID,23.7382,VALID,50,VALID,0,
2016-01-27, 09:28:04,VALID,919.6,VALID,0,VALID,80.9454,VALID,766.7,VALID,24.0896,VALID,88,VALID,0.186719,
2016-01-27, 09:29:04,VALID,919.604,VALID,0,VALID,80.4423,VALID,770.783,VALID,24.3825,VALID,60,VALID,0.162891,
2016-01-27, 09:30:04,VALID,919.611,VALID,0,VALID,77.9647,VALID,802.263,VALID,24.5192,VALID,78,VALID,0.514453,
2016-01-27, 09:31:04,VALID,919.63,VALID,0,VALID,77.3014,VALID,803.552,VALID,24.5582,VALID,52,VALID,1.525,
2016-01-27, 09:32:04,VALID,919.643,VALID,0,VALID,75.3803,VALID,471.882,VALID,24.6754,VALID,124,VALID,0.00195313,
2016-01-27, 09:33:04,VALID,919.647,VALID,0,VALID,75.792,VALID,450.393,VALID,24.7516,VALID,58,VALID,1.38594,
2016-01-27, 09:34:04,VALID,919.654,VALID,0,VALID,76.8212,VALID,451.36,VALID,24.6949,VALID,53,VALID,0,
2016-01-27, 09:35:04,VALID,919.633,VALID,0,VALID,79.3903,VALID,385.606,VALID,24.8707,VALID,38,VALID,1.13359,
2016-01-27, 09:36:04,VALID,919.578,VALID,0,VALID,76.9736,VALID,415.797,VALID,24.9274,VALID,56,VALID,1.26797,
2016-01-27, 09:37:04,VALID,919.584,VALID,0,VALID,75.4032,VALID,585.339,VALID,24.9274,VALID,110,VALID,0.750781,
2016-01-27, 09:38:04,VALID,919.563,VALID,0,VALID,76.9736,VALID,505.94,VALID,24.8121,VALID,78,VALID,0.626953,
2016-01-27, 09:39:04,VALID,919.606,VALID,0,VALID,76.2951,VALID,379.16,VALID,24.7516,VALID,121,VALID,1.80117,
2016-01-27, 09:40:04,VALID,919.608,VALID,0,VALID,75.9978,VALID,736.402,VALID,24.7516,VALID,100,VALID,1.98281,
2016-01-27, 09:41:04,VALID,919.631,VALID,0,VALID,74.1453,VALID,512.065,VALID,24.8083,VALID,148,VALID,0.860547,
2016-01-27, 09:42:04,VALID,919.653,VALID,0,VALID,76.7907,VALID,391.193,VALID,24.9274,VALID,114,VALID,0.110547,
2016-01-27, 09:43:04,VALID,919.708,VALID,0,VALID,75.9902,VALID,410.318,VALID,25.0231,VALID,106,VALID,1.77969,
2016-01-27, 09:44:04,VALID,919.689,VALID,0,VALID,74.374,VALID,457.055,VALID,25.0445,VALID,61,VALID,0.989062,
2016-01-27, 09:45:04,VALID,919.705,VALID,0,VALID,74.9839,VALID,366.159,VALID,24.945,VALID,55,VALID,1.68633,
2016-01-27, 09:46:04,VALID,919.673,VALID,0,VALID,76.1579,VALID,337.795,VALID,24.8083,VALID,45,VALID,1.26523,
2016-01-27, 09:47:04,VALID,919.678,VALID,0,VALID,78.2467,VALID,305.778,VALID,24.6716,VALID,65,VALID,0.802734,
2016-01-27, 09:48:04,VALID,919.689,VALID,0,VALID,77.7665,VALID,378.623,VALID,24.5759,VALID,118,VALID,0.651172,
2016-01-27, 09:49:04,VALID,919.669,VALID,0,VALID,78.8414,VALID,587.811,VALID,24.5973,VALID,42,VALID,1.61406,
2016-01-27, 09:50:04,VALID,919.71,VALID,0,VALID,75.8149,VALID,301.91,VALID,24.5368,VALID,115,VALID,0.651172,
2016-01-27, 09:51:04,VALID,919.674,VALID,0,VALID,76.8974,VALID,285.041,VALID,24.4002,VALID,54,VALID,2.04492,
2016-01-27, 09:52:04,VALID,919.689,VALID,0,VALID,79.0548,VALID,257.322,VALID,24.2635,VALID,57,VALID,1.9707,
2016-01-27, 09:53:04,VALID,919.752,VALID,0,VALID,79.7943,VALID,228.527,VALID,24.283,VALID,82,VALID,0.0152344,
2016-01-27, 09:54:04,VALID,919.735,VALID,0,VALID,77.8732,VALID,213.808,VALID,24.283,VALID,58,VALID,0.298047,
2016-01-27, 09:55:04,VALID,919.674,VALID,0,VALID,78.8033,VALID,225.949,VALID,24.244,VALID,44,VALID,1.6668,
2016-01-27, 09:56:04,VALID,919.697,VALID,0,VALID,77.8503,VALID,215.097,VALID,24.1659,VALID,46,VALID,2.35078,
2016-01-27, 09:57:04,VALID,919.656,VALID,0,VALID,77.9418,VALID,208.006,VALID,24.0878,VALID,50,VALID,2.20781,
2016-01-27, 09:58:04,VALID,919.625,VALID,0,VALID,79.9696,VALID,209.188,VALID,23.9902,VALID,50,VALID,1.92617,
2016-01-27, 09:59:04,VALID,919.629,VALID,0,VALID,77.7436,VALID,205.857,VALID,23.9298,VALID,75,VALID,1.24883,
2016-01-27, 10:00:04,VALID,919.579,VALID,0,VALID,79.0853,VALID,203.386,VALID,23.8731,VALID,63,VALID,1.52539,
2016-01-27, 10:01:04,VALID,919.621,VALID,0,VALID,78.9024,VALID,206.18,VALID,23.8145,VALID,73,VALID,0.125781,
2016-01-27, 10:02:04,VALID,919.628,VALID,0,VALID,79.2683,VALID,208.114,VALID,23.795,VALID,38,VALID,1.44258,
2016-01-27, 10:03:04,VALID,919.664,VALID,0,VALID,79.6723,VALID,203.708,VALID,23.8145,VALID,123,VALID,1.32266,
2016-01-27, 10:04:04,VALID,919.721,VALID,0,VALID,79.3521,VALID,188.452,VALID,23.795,VALID,74,VALID,0.955469,
2016-01-27, 10:05:04,VALID,919.716,VALID,0,VALID,79.3674,VALID,170.079,VALID,23.7755,VALID,53,VALID,1.76406,
2016-01-27, 10:06:04,VALID,919.75,VALID,0,VALID,80.7472,VALID,150.955,VALID,23.756,VALID,63,VALID,0,
2016-01-27, 10:07:04,VALID,919.74,VALID,0,VALID,81.967,VALID,139.029,VALID,23.7755,VALID,64,VALID,0,
2016-01-27, 10:08:04,VALID,919.783,VALID,0,VALID,81.0674,VALID,142.789,VALID,23.7364,VALID,67,VALID,0.896875,
2016-01-27, 10:09:04,VALID,919.769,VALID,0,VALID,79.5656,VALID,167.286,VALID,23.6779,VALID,102,VALID,0,
2016-01-27, 10:10:04,VALID,919.782,VALID,0,VALID,81.136,VALID,186.84,VALID,23.6779,VALID,37,VALID,0,
2016-01-27, 10:11:04,VALID,919.769,VALID,0,VALID,80.2136,VALID,196.188,VALID,23.7169,VALID,117,VALID,0,
2016-01-27, 10:12:04,VALID,919.755,VALID,0,VALID,82.1957,VALID,212.519,VALID,23.756,VALID,79,VALID,0,
2016-01-27, 10:13:04,VALID,919.756,VALID,0,VALID,80.4575,VALID,233.792,VALID,23.6584,VALID,103,VALID,0.615625,
2016-01-27, 10:14:04,VALID,919.724,VALID,0,VALID,80.8235,VALID,267.099,VALID,23.6584,VALID,71,VALID,1.64219,
2016-01-27, 10:15:04,VALID,919.72,VALID,0,VALID,80.5109,VALID,304.058,VALID,23.6193,VALID,57,VALID,1.77188,
2016-01-27, 10:16:04,VALID,919.67,VALID,0,VALID,82.4244,VALID,315.232,VALID,23.6388,VALID,64,VALID,0.654297,
2016-01-27, 10:17:04,VALID,919.66,VALID,0,VALID,79.2073,VALID,289.446,VALID,23.6974,VALID,54,VALID,1.00352,
2016-01-27, 10:18:04,VALID,919.653,VALID,0,VALID,78.7194,VALID,248.511,VALID,23.756,VALID,53,VALID,0.00664063,
2016-01-27, 10:19:04,VALID,919.649,VALID,0,VALID,80.206,VALID,212.519,VALID,23.834,VALID,43,VALID,1.5707,
2016-01-27, 10:20:04,VALID,919.629,VALID,0,VALID,78.4983,VALID,198.659,VALID,23.8145,VALID,39,VALID,2.00742,
2016-01-27, 10:21:04,VALID,919.667,VALID,0,VALID,78.4602,VALID,210.262,VALID,23.8145,VALID,62,VALID,2.62422,
2016-01-27, 10:22:04,VALID,919.697,VALID,0,VALID,78.3001,VALID,234.114,VALID,23.7169,VALID,118,VALID,1.37305,
2016-01-27, 10:23:04,VALID,919.688,VALID,0,VALID,79.1692,VALID,243.999,VALID,23.6584,VALID,94,VALID,0.674219,
2016-01-27, 10:24:04,VALID,919.694,VALID,0,VALID,80.1755,VALID,237.767,VALID,23.6584,VALID,130,VALID,1.74141,
2016-01-27, 10:25:04,VALID,919.739,VALID,0,VALID,81.2732,VALID,213.486,VALID,23.6584,VALID,141,VALID,0.00195313,
2016-01-27, 10:26:04,VALID,919.746,VALID,0,VALID,80.4804,VALID,193.072,VALID,23.6779,VALID,105,VALID,0.876172,
2016-01-27, 10:27:04,VALID,919.817,VALID,0,VALID,80.6176,VALID,184.584,VALID,23.6779,VALID,132,VALID,1.5168,
2016-01-27, 10:28:04,VALID,919.779,VALID,0,VALID,80.2517,VALID,182.865,VALID,23.4437,VALID,117,VALID,1.81289,
2016-01-27, 10:29:04,VALID,919.765,VALID,0,VALID,82.2033,VALID,190.278,VALID,23.307,VALID,135,VALID,0.758203,
2016-01-27, 10:30:04,VALID,919.745,VALID,0,VALID,83.2934,VALID,216.816,VALID,23.2875,VALID,83,VALID,0.0121094,
2016-01-27, 10:31:04,VALID,919.788,VALID,0,VALID,83.8423,VALID,249.371,VALID,23.3265,VALID,113,VALID,0.409766,
2016-01-27, 10:32:04,VALID,919.798,VALID,0,VALID,83.9414,VALID,287.405,VALID,23.307,VALID,121,VALID,1.07305,
2016-01-27, 10:33:04,VALID,919.762,VALID,0,VALID,84.4217,VALID,327.051,VALID,23.229,VALID,94,VALID,1.73438,
2016-01-27, 10:34:04,VALID,919.782,VALID,0,VALID,83.019,VALID,361.969,VALID,23.1509,VALID,127,VALID,1.88086,
2016-01-27, 10:35:04,VALID,919.741,VALID,0,VALID,83.202,VALID,421.384,VALID,23.1314,VALID,76,VALID,2.4125,
2016-01-27, 10:36:04,VALID,919.785,VALID,0,VALID,82.6302,VALID,429.442,VALID,23.0924,VALID,117,VALID,1.99805,
2016-01-27, 10:37:04,VALID,919.785,VALID,0,VALID,84.6657,VALID,497.13,VALID,23.0924,VALID,110,VALID,1.20664,
2016-01-27, 10:38:04,VALID,919.729,VALID,0,VALID,87.2424,VALID,337.258,VALID,23.1704,VALID,90,VALID,0.951563,
2016-01-27, 10:39:04,VALID,919.748,VALID,0,VALID,91.3819,VALID,290.091,VALID,23.3461,VALID,84,VALID,0.591406,
2016-01-27, 10:40:04,VALID,919.725,VALID,0,VALID,84.0482,VALID,256.677,VALID,23.3265,VALID,114,VALID,1.17813,
2016-01-27, 10:41:04,VALID,919.752,VALID,0,VALID,83.6365,VALID,235.189,VALID,23.2662,VALID,137,VALID,1.08281,
2016-01-27, 10:42:04,VALID,919.747,VALID,0,VALID,84.963,VALID,221.114,VALID,23.2467,VALID,123,VALID,0.769922,
2016-01-27, 10:43:04,VALID,919.682,VALID,0,VALID,84.7495,VALID,206.717,VALID,23.2272,VALID,97,VALID,1.80039,
2016-01-27, 10:44:04,VALID,919.673,VALID,0,VALID,84.9325,VALID,200.593,VALID,23.1882,VALID,126,VALID,2.10547,
2016-01-27, 10:45:04,VALID,919.69,VALID,0,VALID,85.4661,VALID,191.782,VALID,23.2077,VALID,143,VALID,0.823047,
2016-01-27, 10:46:04,VALID,919.664,VALID,0,VALID,86.1522,VALID,182.113,VALID,23.2272,VALID,42,VALID,0.238672,
2016-01-27, 10:47:04,VALID,919.65,VALID,0,VALID,85.771,VALID,183.724,VALID,23.1864,VALID,148,VALID,0.307031,
2016-01-27, 10:48:04,VALID,919.627,VALID,0,VALID,84.9249,VALID,189.096,VALID,23.1882,VALID,113,VALID,1.34023,
2016-01-27, 10:49:04,VALID,919.629,VALID,0,VALID,86.4572,VALID,187.055,VALID,23.1491,VALID,122,VALID,0.205078,
2016-01-27, 10:50:04,VALID,919.62,VALID,0,VALID,85.2222,VALID,183.832,VALID,23.1101,VALID,134,VALID,2.30977,
2016-01-27, 10:51:04,VALID,919.604,VALID,0,VALID,84.8562,VALID,185.229,VALID,22.993,VALID,107,VALID,2.26523,
2016-01-27, 10:52:04,VALID,919.587,VALID,0,VALID,90.0935,VALID,190.708,VALID,22.9327,VALID,123,VALID,0.285547,
2016-01-27, 10:53:04,VALID,919.553,VALID,0,VALID,86.9908,VALID,195.973,VALID,22.9327,VALID,137,VALID,1.07109,
2016-01-27, 10:54:04,VALID,919.512,VALID,0,VALID,85.024,VALID,190.493,VALID,22.993,VALID,111,VALID,1.70938,
2016-01-27, 10:55:04,VALID,919.533,VALID,0,VALID,86.4495,VALID,183.187,VALID,23.0728,VALID,95,VALID,0.917188,
2016-01-27, 10:56:04,VALID,919.501,VALID,0,VALID,86.5563,VALID,182.005,VALID,23.1314,VALID,138,VALID,0.322266,
2016-01-27, 10:57:04,VALID,919.456,VALID,0,VALID,85.5576,VALID,183.402,VALID,23.1704,VALID,124,VALID,0.667969,
2016-01-27, 10:58:04,VALID,919.455,VALID,0,VALID,87.2119,VALID,183.939,VALID,23.0924,VALID,131,VALID,0.49375,
2016-01-27, 10:59:04,VALID,919.417,VALID,0,VALID,86.2589,VALID,183.724,VALID,23.0924,VALID,112,VALID,1.18672,
2016-01-27, 11:00:04,VALID,919.468,VALID,0,VALID,89.5218,VALID,186.196,VALID,23.0728,VALID,91,VALID,0.611719,
2016-01-27, 11:01:04,VALID,919.439,VALID,0,VALID,88.1648,VALID,197.369,VALID,23.0924,VALID,97,VALID,0.00507812,
2016-01-27, 11:02:04,VALID,919.455,VALID,0,VALID,86.0836,VALID,220.147,VALID,23.0924,VALID,110,VALID,0.589844,
2016-01-27, 11:03:04,VALID,919.396,VALID,0,VALID,84.5742,VALID,251.842,VALID,23.0728,VALID,106,VALID,0.585547,
2016-01-27, 11:04:04,VALID,919.416,VALID,0,VALID,88.2105,VALID,282.033,VALID,23.1119,VALID,78,VALID,0.732422,
2016-01-27, 11:05:04,VALID,919.436,VALID,0,VALID,87.1433,VALID,291.595,VALID,23.1704,VALID,69,VALID,0.000390625,
2016-01-27, 11:06:04,VALID,919.454,VALID,0,VALID,84.1015,VALID,297.719,VALID,23.2094,VALID,129,VALID,1.74102,
2016-01-27, 11:07:04,VALID,919.449,VALID,0,VALID,85.4737,VALID,312.439,VALID,23.2485,VALID,118,VALID,0.130859,
2016-01-27, 11:08:04,VALID,919.439,VALID,0,VALID,87.715,VALID,317.381,VALID,23.4241,VALID,114,VALID,0,
2016-01-27, 11:09:04,VALID,919.453,VALID,0,VALID,83.019,VALID,318.026,VALID,23.4632,VALID,91,VALID,0.177734,
2016-01-27, 11:10:04,VALID,919.42,VALID,0,VALID,82.3176,VALID,301.158,VALID,23.5821,VALID,171,VALID,1.01445,
2016-01-27, 11:11:04,VALID,919.419,VALID,0,VALID,81.1055,VALID,284.504,VALID,23.6602,VALID,157,VALID,0.192188,
2016-01-27, 11:12:04,VALID,919.394,VALID,0,VALID,82.2795,VALID,299.653,VALID,23.6779,VALID,97,VALID,0,
2016-01-27, 11:13:04,VALID,919.403,VALID,0,VALID,82.775,VALID,355.2,VALID,23.8145,VALID,136,VALID,0.0289063,
2016-01-27, 11:14:04,VALID,919.374,VALID,0,VALID,79.6952,VALID,396.78,VALID,23.8926,VALID,86,VALID,0.184375,
2016-01-27, 11:15:04,VALID,919.356,VALID,0,VALID,80.2212,VALID,408.706,VALID,24.0292,VALID,47,VALID,2.80547,
2016-01-27, 11:16:04,VALID,919.329,VALID,0,VALID,76.3104,VALID,399.574,VALID,24.0488,VALID,84,VALID,2.15391,
2016-01-27, 11:17:04,VALID,919.289,VALID,0,VALID,78.788,VALID,395.491,VALID,24.0097,VALID,63,VALID,1.9793,
2016-01-27, 11:18:04,VALID,919.275,VALID,0,VALID,78.5441,VALID,384.747,VALID,24.0292,VALID,77,VALID,0.0988281,
2016-01-27, 11:19:04,VALID,919.25,VALID,0,VALID,80.2136,VALID,380.342,VALID,24.0683,VALID,73,VALID,0,
2016-01-27, 11:20:04,VALID,919.208,VALID,0,VALID,80.4194,VALID,413.541,VALID,24.1269,VALID,132,VALID,1.44062,
2016-01-27, 11:21:04,VALID,919.164,VALID,0,VALID,79.4436,VALID,381.094,VALID,24.2049,VALID,141,VALID,0.739844,
2016-01-27, 11:22:04,VALID,919.155,VALID,0,VALID,79.7028,VALID,335.109,VALID,24.1445,VALID,127,VALID,1.90156,
2016-01-27, 11:23:04,VALID,919.139,VALID,0,VALID,77.6445,VALID,284.612,VALID,24.1854,VALID,72,VALID,1.00937,
2016-01-27, 11:24:04,VALID,919.126,VALID,0,VALID,77.9189,VALID,287.405,VALID,24.1854,VALID,145,VALID,1.75586,
2016-01-27, 11:25:04,VALID,919.119,VALID,0,VALID,78.262,VALID,314.695,VALID,24.0469,VALID,143,VALID,2.18906,
2016-01-27, 11:26:04,VALID,919.067,VALID,0,VALID,79.1692,VALID,288.157,VALID,23.9884,VALID,75,VALID,0,
2016-01-27, 11:27:04,VALID,919.055,VALID,0,VALID,78.5441,VALID,263.016,VALID,24.0488,VALID,42,VALID,1.43008,
2016-01-27, 11:28:04,VALID,919.049,VALID,0,VALID,78.2391,VALID,253.454,VALID,24.1073,VALID,99,VALID,2.24492,
2016-01-27, 11:29:04,VALID,919.078,VALID,0,VALID,79.2607,VALID,263.983,VALID,24.086,VALID,137,VALID,1.62969,
2016-01-27, 11:30:04,VALID,919.026,VALID,0,VALID,78.8109,VALID,267.851,VALID,23.9884,VALID,115,VALID,2.64063,
2016-01-27, 11:31:04,VALID,918.968,VALID,0,VALID,77.3472,VALID,260.33,VALID,23.9707,VALID,64,VALID,2.18594,
2016-01-27, 11:32:04,VALID,918.959,VALID,0,VALID,78.2925,VALID,245.503,VALID,23.9316,VALID,113,VALID,1.52695,
2016-01-27, 11:33:04,VALID,918.964,VALID,0,VALID,79.0853,VALID,226.164,VALID,23.9298,VALID,110,VALID,1.76836,
2016-01-27, 11:34:04,VALID,918.966,VALID,0,VALID,77.7512,VALID,225.519,VALID,23.9316,VALID,120,VALID,1.63164,
2016-01-27, 11:35:04,VALID,918.983,VALID,0,VALID,77.7207,VALID,249.371,VALID,23.8908,VALID,102,VALID,2.4832,
2016-01-27, 11:36:04,VALID,918.909,VALID,0,VALID,79.0396,VALID,303.199,VALID,23.834,VALID,92,VALID,3.66133,
2016-01-27, 11:37:04,VALID,918.916,VALID,0,VALID,77.9189,VALID,289.017,VALID,23.7542,VALID,68,VALID,2.29297,
2016-01-27, 11:38:04,VALID,918.955,VALID,0,VALID,79.5656,VALID,272.256,VALID,23.7932,VALID,76,VALID,0.948047,
2016-01-27, 11:39:04,VALID,918.976,VALID,0,VALID,78.5364,VALID,266.347,VALID,23.8322,VALID,82,VALID,2.97578,
2016-01-27, 11:40:04,VALID,918.896,VALID,0,VALID,78.849,VALID,262.694,VALID,23.9103,VALID,53,VALID,1.46875,
2016-01-27, 11:41:04,VALID,918.913,VALID,0,VALID,77.5759,VALID,264.95,VALID,23.9298,VALID,101,VALID,3.64453,
2016-01-27, 11:42:04,VALID,918.915,VALID,0,VALID,75.9673,VALID,284.719,VALID,23.9298,VALID,123,VALID,1.38281,
2016-01-27, 11:43:04,VALID,918.89,VALID,0,VALID,77.4234,VALID,316.522,VALID,23.9298,VALID,77,VALID,1.73477,
2016-01-27, 11:44:04,VALID,918.877,VALID,0,VALID,78.1476,VALID,316.092,VALID,23.9884,VALID,36,VALID,2.65508,
2016-01-27, 11:45:04,VALID,918.846,VALID,0,VALID,77.3624,VALID,304.918,VALID,24.0274,VALID,71,VALID,3.5707,